| time (UTC) | temp F | wind direction | speed knots | gust knots | rain 1hr in | rain 24hr in | rain mn in | humidity % | barometer mb |
| 20260506023044 | 0 | 244 | 0.0 | 0.0 | 0.00 | 0.00 | 0.00 | 1014.8 | |
| 20260506021539 | 0 | 244 | 0.0 | 0.0 | 0.00 | 0.00 | 0.00 | 1014.8 | |
| 20260506020034 | 0 | 244 | 0.0 | 0.0 | 0.00 | 0.00 | 0.00 | 1014.9 | |
| 20260506014532 | 0 | 244 | 0.0 | 0.0 | 0.00 | 0.00 | 0.00 | 1014.9 | |
| 20260506013026 | 0 | 244 | 0.0 | 0.0 | 0.00 | 0.00 | 0.00 | 1014.8 | |
| 20260506011523 | 0 | 244 | 0.0 | 0.0 | 0.00 | 0.00 | 0.00 | 1014.7 | |
| 20260506010016 | 0 | 244 | 0.0 | 0.0 | 0.00 | 0.00 | 0.00 | 1014.9 | |
| 20260506004522 | 0 | 244 | 0.0 | 0.0 | 0.00 | 0.00 | 0.00 | 1014.8 | |
| 20260506003010 | 0 | 244 | 0.0 | 0.0 | 0.00 | 0.00 | 0.00 | 1015.0 | |
| 20260506001503 | 0 | 244 | 0.0 | 0.0 | 0.00 | 0.00 | 0.00 | 1014.9 | |
| 20260505234601 | 0 | 244 | 0.0 | 0.0 | 0.00 | 0.00 | 0.00 | 1014.9 | |
| 20260505233102 | 0 | 244 | 0.0 | 0.0 | 0.00 | 0.00 | 0.00 | 1014.9 | |
| 20260505231552 | 0 | 244 | 0.0 | 0.0 | 0.00 | 0.00 | 0.00 | 1014.9 | |
| 20260505230041 | 0 | 244 | 0.0 | 0.0 | 0.00 | 0.00 | 0.00 | 1014.8 | |
| 20260505224537 | 0 | 244 | 0.0 | 0.0 | 0.00 | 0.00 | 0.00 | 1015.0 | |
| 20260505223036 | 0 | 244 | 0.0 | 0.0 | 0.00 | 0.00 | 0.00 | 1015.0 | |
| 20260505221528 | 0 | 244 | 0.0 | 0.0 | 0.00 | 0.00 | 0.00 | 1014.9 | |
| 20260505220023 | 0 | 244 | 0.0 | 0.0 | 0.00 | 0.00 | 0.00 | 1014.9 | |
| 20260505214522 | 0 | 243 | 0.0 | 0.0 | 0.00 | 0.00 | 0.00 | 1014.8 | |
| 20260505213014 | 0 | 226 | 0.0 | 0.0 | 0.00 | 0.00 | 0.00 | 1014.9 | |
| 20260505211511 | 0 | 226 | 0.0 | 0.0 | 0.00 | 0.00 | 0.00 | 1015.0 | |
| 20260505210006 | 0 | 226 | 0.0 | 0.0 | 0.00 | 0.00 | 0.00 | 1015.0 | |
| 20260505204502 | 0 | 226 | 0.0 | 0.0 | 0.00 | 0.00 | 0.00 | 1014.9 | |
| 20260505203059 | 0 | 226 | 0.0 | 0.0 | 0.00 | 0.00 | 0.00 | 1014.9 | |
| 20260505201558 | 0 | 232 | 0.9 | 4.3 | 0.00 | 0.00 | 0.00 | 1014.8 | |
| 20260505200050 | 0 | 233 | 0.9 | 5.2 | 0.00 | 0.00 | 0.00 | 1014.8 | |
| 20260505194551 | 0 | 244 | 0.0 | 3.5 | 0.00 | 0.00 | 0.00 | 1014.7 | |
| 20260505193040 | 0 | 259 | 0.9 | 5.2 | 0.00 | 0.00 | 0.00 | 1014.7 | |
| 20260505191537 | 0 | 238 | 0.9 | 7.0 | 0.00 | 0.00 | 0.00 | 1014.6 | |
| 20260505190037 | 0 | 235 | 2.6 | 7.0 | 0.00 | 0.00 | 0.00 | 1014.5 | |
| 20260505184526 | 0 | 246 | 1.7 | 7.8 | 0.00 | 0.00 | 0.00 | 1014.4 | |
| 20260505183022 | 0 | 225 | 2.6 | 7.8 | 0.00 | 0.00 | 0.00 | 1014.2 | |
| 20260505181518 | 0 | 238 | 1.7 | 9.6 | 0.00 | 0.00 | 0.00 | 1014.1 | |
| 20260505180015 | 0 | 277 | 1.7 | 8.7 | 0.00 | 0.00 | 0.00 | 1014.2 | |
| 20260505174509 | 0 | 222 | 0.0 | 8.7 | 0.00 | 0.00 | 0.00 | 1014.2 | |
| 20260505173004 | 0 | 240 | 3.5 | 9.6 | 0.00 | 0.00 | 0.00 | 1014.2 | |
| 20260505171606 | 0 | 225 | 3.5 | 10.4 | 0.00 | 0.00 | 0.00 | 1014.1 | |
| 20260505170056 | 0 | 224 | 3.5 | 13.0 | 0.00 | 0.00 | 0.00 | 1014.2 | |
| 20260505164614 | 0 | 232 | 3.5 | 11.3 | 0.00 | 0.00 | 0.00 | 1014.1 | |
| 20260505163053 | 0 | 235 | 1.7 | 9.6 | 0.00 | 0.00 | 0.00 | 1014.2 | |
| 20260505161543 | 0 | 223 | 0.9 | 8.7 | 0.00 | 0.00 | 0.00 | 1014.1 | |
| 20260505153029 | 0 | 207 | 0.0 | 7.0 | 0.00 | 0.00 | 0.00 | 1014.2 | |
| 20260505151524 | 0 | 265 | 0.9 | 7.0 | 0.00 | 0.00 | 0.00 | 1014.3 | |
| 20260505130105 | 0 | 254 | 6.1 | 11.3 | 0.00 | 0.00 | 0.00 | 1014.3 | |
| 20260505124541 | 0 | 250 | 4.3 | 9.6 | 0.00 | 0.00 | 0.00 | 1014.2 | |
| 20260505123039 | 0 | 248 | 3.5 | 9.6 | 0.00 | 0.00 | 0.00 | 1014.2 | |
| 20260505121532 | 0 | 242 | 1.7 | 9.6 | 0.00 | 0.00 | 0.00 | 1014.1 | |
| 20260505120027 | 0 | 227 | 3.5 | 10.4 | 0.00 | 0.00 | 0.00 | 1014.1 | |
| 20260505114522 | 0 | 263 | 1.7 | 11.3 | 0.00 | 0.00 | 0.00 | 1014.1 | |
| 20260505113017 | 0 | 277 | 0.9 | 7.8 | 0.00 | 0.00 | 0.00 | 1014.1 | |
| 20260505111519 | 0 | 227 | 1.7 | 7.0 | 0.00 | 0.00 | 0.00 | 1014.1 | |
| 20260505101601 | 0 | 250 | 1.7 | 6.1 | 0.00 | 0.00 | 0.00 | 1014.1 | |
| 20260505100051 | 0 | 254 | 0.0 | 4.3 | 0.00 | 0.00 | 0.00 | 1014.1 | |
| 20260505094546 | 0 | 300 | 0.9 | 7.8 | 0.00 | 0.00 | 0.00 | 1014.0 | |
| 20260505093042 | 0 | 240 | 0.0 | 7.0 | 0.00 | 0.00 | 0.00 | 1014.0 | |
| 20260505091538 | 0 | 247 | 0.9 | 3.5 | 0.00 | 0.00 | 0.00 | 1013.8 | |
| 20260505090038 | 0 | 265 | 0.9 | 6.1 | 0.00 | 0.00 | 0.00 | 1013.8 | |
| 20260505084529 | 0 | 294 | 0.0 | 6.1 | 0.00 | 0.00 | 0.00 | 1013.7 | |
| 20260505083025 | 0 | 269 | 0.0 | 0.9 | 0.00 | 0.00 | 0.00 | 1013.7 | |
| 20260505081529 | 0 | 268 | 0.0 | 1.7 | 0.00 | 0.00 | 0.00 | 1013.7 | |
| 20260505080016 | 0 | 50 | 0.0 | 4.3 | 0.00 | 0.00 | 0.00 | 1013.5 | |
| 20260505074512 | 0 | 53 | 0.0 | 4.3 | 0.00 | 0.00 | 0.00 | 1013.6 | |
| 20260505073010 | 0 | 52 | 0.0 | 3.5 | 0.00 | 0.00 | 0.00 | 1013.6 | |
| 20260505071511 | 0 | 271 | 0.0 | 0.0 | 0.00 | 0.00 | 0.00 | 1013.5 | |
| 20260505070111 | 0 | 59 | 0.0 | 1.7 | 0.00 | 0.00 | 0.00 | 1013.5 | |
| 20260505064559 | 0 | 360 | 0.9 | 5.2 | 0.00 | 0.00 | 0.00 | 1013.6 | |
| 20260505063049 | 0 | 54 | 0.0 | 5.2 | 0.00 | 0.00 | 0.00 | 1013.5 | |
| 20260505061546 | 0 | 165 | 0.0 | 0.0 | 0.00 | 0.00 | 0.00 | 1013.6 | |
| 20260505060040 | 0 | 178 | 0.0 | 0.0 | 0.00 | 0.00 | 0.00 | 1013.7 | |
| 20260505054549 | 0 | 178 | 0.0 | 0.0 | 0.00 | 0.00 | 0.00 | 1013.6 | |
| 20260505053045 | 0 | 181 | 0.0 | 0.0 | 0.00 | 0.00 | 0.00 | 1013.6 | |
| 20260505051536 | 0 | 182 | 0.0 | 0.0 | 0.00 | 0.00 | 0.00 | 1013.7 | |
| 20260505041514 | 0 | 181 | 0.0 | 0.0 | 0.00 | 0.00 | 0.00 | 1013.0 | |
| 20260505040007 | 0 | 182 | 0.0 | 0.0 | 0.00 | 0.00 | 0.00 | 1012.8 | |
| 20260505034501 | 0 | 182 | 0.0 | 0.0 | 0.00 | 0.00 | 0.00 | 1013.1 | |
| 20260505033100 | 0 | 182 | 0.0 | 0.0 | 0.00 | 0.00 | 0.00 | 1013.1 | |
| 20260505031555 | 0 | 182 | 0.0 | 0.0 | 0.00 | 0.00 | 0.00 | 1013.2 | |
| 20260505030049 | 0 | 182 | 0.0 | 0.0 | 0.00 | 0.00 | 0.00 | 1013.0 | |
| 20260505024545 | 0 | 182 | 0.0 | 0.0 | 0.00 | 0.00 | 0.00 | 1013.1 |